[[{"header":{"parameterUnit":"m.s-1","parameterCategory":1,"la1":30.2991,"la2":30.254,"lo1":-89.0895,"lo2":-89.0444,"dy":0.0017,"dx":0.0017,"nx":28,"ny":28,"refTime":"2025-11-14T03:00:00:Z","depth":0,"parameterNumber":2,"parameterNumberName":"U-component_of_WINDS"},"data":[0,0,0,0,0,0,0,0,0,0,0,0,0,0,0,0,0,0,0,0,0,0,0,0,0,0,0,0,0,0,0,0,0,0,0,0,0,0,0,0,0,0,0,0,0,0,0,0,0,0,0,0,0,0,0,0,0,0,0.479,0.4791,0,0.4873,0.4874,0.4875,0.4899,0.4898,0.4898,0.4897,0.4982,0.4984,0.4987,0,0,0,0,0,0,0,0,0,0,0,0,0,0.465,0.4652,0.479,0.4791,0.4792,0.4873,0.4874,0.4875,0.4899,0.4898,0.4898,0.4897,0.4981,0.4984,0.4987,0,0,0,0,0,0,0,0,0,0,0,0,0,0.472,0.4653,0.479,0.4814,0.4817,0.4873,0.4874,0.4876,0.4899,0.4898,0.4897,0.4897,0.498,0.4984,0.4988,0.5026,0,0,0.5,0.5002,0,0,0,0,0,0,0,0,0.4716,0.4725,0.4809,0.4812,0.4815,0.4875,0.4856,0.4926,0.4899,0.4868,0.4897,0.4896,0.4947,0.4953,0.497,0.503,0.5034,0.5,0.5003,0.5004,0.5006,0,0,0,0,0,0,0,0.4711,0.4721,0.4823,0.481,0.4814,0.482,0.4829,0.4869,0.491,0.487,0.4872,0.4882,0.4948,0.4967,0.4973,0.5035,0.5,0.5004,0.5006,0.5008,0.5129,0.513,0,0,0,0,0,0,0.4702,0.4717,0.482,0.4825,0.4763,0.4823,0.4833,0.4856,0.491,0.4917,0.4882,0.4882,0.496,0.4968,0.4976,0.5024,0.5004,0.5008,0.501,0.5129,0.513,0.513,0,0,0,0,0,0,0.4699,0.4711,0.4817,0.4772,0.4786,0.4826,0.4852,0.4858,0.4877,0.4919,0.4926,0.4893,0.496,0.497,0.5013,0.5027,0.501,0.5014,0.5128,0.5129,0.513,0.512,0,0,0,0,0,0,0.4695,0.471,0.4725,0.4772,0.4788,0.4854,0.4853,0.4861,0.4884,0.4885,0.4931,0.4938,0.496,0.5007,0.5017,0.5032,0.5017,0.5127,0.5128,0.513,0.5119,0.5121,0.5122,0,0,0,0,0,0.469,0.4719,0.4726,0.4738,0.4808,0.4854,0.4863,0.4888,0.4885,0.49,0.4927,0.4937,0.5024,0.5011,0.5023,0.5039,0.5126,0.5128,0.513,0.5119,0.5121,0.5122,0,0,0,0,0,0,0.4673,0.4726,0.4734,0.478,0.4812,0.4858,0.4879,0.489,0.4924,0.4923,0.4953,0.4963,0.5004,0.5026,0.5011,0.5079,0.5075,0.5079,0.5063,0.5065,0.5066,0.506,0.502,0,0,0,0,0,0.4675,0.4708,0.4752,0.4788,0.4804,0.4838,0.4859,0.4876,0.4911,0.4925,0.4955,0.4988,0.5023,0.5045,0.508,0.5123,0.5133,0.5139,0.5141,0.5142,0.5145,0.5168,0.5172,0.5137,0.5137,0.5137,0,0,0.4678,0.4711,0.4731,0.4786,0.4813,0.4846,0.485,0.4885,0.491,0.493,0.4972,0.4995,0.5034,0.5078,0.5098,0.5097,0.5157,0.5144,0.5144,0.5147,0.5171,0.5174,0.5177,0.5138,0.5138,0.5137,0,0,0.4702,0.473,0.4763,0.479,0.4832,0.4854,0.4862,0.4906,0.4922,0.4965,0.4981,0.501,0.507,0.5097,0.5118,0.5151,0.5161,0.5161,0.5168,0.5191,0.5194,0.5196,0.5207,0.5211,0.5164,0.5164,0.5164,0,0.4701,0.4752,0.4778,0.4813,0.4836,0.4856,0.4888,0.4913,0.4964,0.4979,0.4977,0.5052,0.508,0.5129,0.5137,0.5154,0.5163,0.5156,0.5191,0.5194,0.5197,0.5207,0.5212,0.5164,0.5164,0.5164,0.5164,0,0.4749,0.4784,0.4805,0.4853,0.4879,0.4912,0.4943,0.4966,0.498,0.5002,0.5045,0.5079,0.512,0.5133,0.5147,0.5184,0.5182,0.5185,0.5182,0.5199,0.521,0.5214,0.5164,0.5164,0.5164,0.5164,0,0,0.4764,0.4826,0.4833,0.4855,0.4902,0.4929,0.4963,0.5003,0.5022,0.5055,0.5084,0.5134,0.5137,0.5161,0.5178,0.5198,0.522,0.5199,0.52,0.5201,0.5262,0.5259,0.5264,0.5227,0.5228,0.5229,0.5259,0,0.4793,0.4855,0.4879,0.4929,0.4961,0.498,0.5009,0.504,0.5062,0.5092,0.5116,0.515,0.5152,0.5167,0.5187,0.5213,0.5233,0.5212,0.5254,0.5255,0.5243,0.5269,0.5266,0.5293,0.5263,0.5264,0.5264,0,0.4835,0.4869,0.4923,0.4964,0.4979,0.5005,0.5043,0.5072,0.5108,0.5122,0.5149,0.5164,0.5199,0.5194,0.5243,0.5227,0.5246,0.5261,0.5263,0.5267,0.526,0.5274,0.5302,0.5306,0.5271,0.5271,0.527,0,0.484,0.49,0.4939,0.4957,0.5007,0.5025,0.5046,0.5081,0.5104,0.5137,0.5152,0.5189,0.5209,0.5237,0.5261,0.5255,0.5307,0.5304,0.532,0.5319,0.533,0.5329,0.5361,0.5342,0.5342,0.5342,0.5342,0,0.487,0.4901,0.4942,0.4966,0.5001,0.5029,0.5063,0.5086,0.5116,0.5145,0.5163,0.5189,0.522,0.525,0.527,0.5307,0.5316,0.5328,0.5332,0.5326,0.5324,0.5338,0.5337,0.5343,0.5343,0.5343,0.5343,0,0.4882,0.491,0.4954,0.4998,0.5009,0.5033,0.507,0.5094,0.5116,0.5152,0.5162,0.5196,0.5232,0.526,0.5307,0.532,0.5359,0.5364,0.5347,0.5349,0.5363,0.5361,0.5404,0.5411,0.5389,0.5389,0.5389,0,0.4898,0.4923,0.4969,0.499,0.5011,0.5044,0.5067,0.5094,0.5117,0.5159,0.5177,0.5214,0.5246,0.5302,0.5331,0.5367,0.5373,0.5386,0.5378,0.5371,0.5372,0.537,0.5373,0.5386,0.5387,0.5387,0.5387,0,0.4925,0.4937,0.497,0.5007,0.5034,0.5065,0.5096,0.5111,0.5144,0.5168,0.5205,0.523,0.5277,0.5314,0.5352,0.5374,0.5385,0.5389,0.5394,0.5388,0.5376,0.5382,0.5349,0.5388,0.5388,0.5388,0.5387,0.5387,0.4939,0.4962,0.4998,0.5033,0.5059,0.5087,0.5112,0.5137,0.5168,0.5209,0.5223,0.5261,0.5295,0.5348,0.537,0.5399,0.54,0.5408,0.541,0.5411,0.541,0.5372,0.5407,0.5407,0.5407,0.5407,0.5407,0,0.4966,0.499,0.5022,0.5065,0.5092,0.5101,0.5136,0.5158,0.5191,0.5222,0.5253,0.5295,0.533,0.5361,0.5398,0.5415,0.5422,0.5424,0.5423,0.5427,0.5408,0.5399,0.5418,0.5418,0.5418,0.5418,0.5418,0.5418,0.4983,0.5022,0.5038,0.5089,0.5113,0.5151,0.5169,0.5195,0.522,0.5266,0.5296,0.5316,0.5347,0.5386,0.5418,0.5427,0.5439,0.544,0.5449,0.543,0.5429,0.5427,0.542,0.5442,0.5442,0.5466,0.5466,0.5467]},{"header":{"parameterUnit":"m.s-1","parameterCategory":1,"la1":30.2991,"la2":30.254,"lo1":-89.0895,"lo2":-89.0444,"dy":0.0017,"dx":0.0017,"nx":28,"ny":28,"refTime":"2025-11-14T03:00:00:Z","depth":0,"parameterNumber":3,"parameterNumberName":"V-component_of_WINDS"},"data":[0,0,0,0,0,0,0,0,0,0,0,0,0,0,0,0,0,0,0,0,0,0,0,0,0,0,0,0,0,0,0,0,0,0,0,0,0,0,0,0,0,0,0,0,0,0,0,0,0,0,0,0,0,0,0,0,0,0,2.6131,2.6131,0,2.6099,2.6098,2.6098,2.6072,2.6071,2.6071,2.6071,2.6035,2.6034,2.6033,0,0,0,0,0,0,0,0,0,0,0,0,0,2.6167,2.6166,2.6131,2.6131,2.613,2.6099,2.6098,2.6098,2.6072,2.6071,2.6071,2.6071,2.6035,2.6034,2.6033,0,0,0,0,0,0,0,0,0,0,0,0,0,2.6145,2.6166,2.6131,2.6113,2.6112,2.6099,2.6098,2.6098,2.6072,2.6071,2.6071,2.607,2.6035,2.6034,2.6033,2.6035,0,0,2.603,2.6029,0,0,0,0,0,0,0,0,2.6146,2.6143,2.6116,2.6115,2.6113,2.6089,2.6098,2.6077,2.6072,2.6087,2.6071,2.607,2.6053,2.605,2.6045,2.6033,2.6032,2.603,2.6029,2.6029,2.6028,0,0,0,0,0,0,0,2.6147,2.6145,2.6118,2.6116,2.6114,2.6106,2.6102,2.6094,2.6072,2.6085,2.6083,2.608,2.6052,2.6046,2.6044,2.6031,2.603,2.6029,2.6028,2.6028,2.6017,2.6018,0,0,0,0,0,0,2.6152,2.6146,2.6119,2.6117,2.6129,2.6106,2.6102,2.6097,2.6072,2.6068,2.608,2.6079,2.6048,2.6045,2.6043,2.6042,2.6029,2.6028,2.6027,2.6017,2.6017,2.6018,0,0,0,0,0,0,2.6153,2.615,2.6121,2.6131,2.6127,2.6106,2.61,2.6096,2.6091,2.6069,2.6064,2.6079,2.6048,2.6044,2.6037,2.6041,2.6027,2.6026,2.6017,2.6017,2.6018,2.6042,0,0,0,0,0,0,2.6154,2.6151,2.6152,2.6131,2.6126,2.6117,2.6101,2.6096,2.6089,2.6087,2.6066,2.6062,2.6047,2.6039,2.6036,2.6039,2.6025,2.6016,2.6017,2.6017,2.6041,2.6043,2.6045,0,0,0,0,0,2.6156,2.6159,2.6152,2.6149,2.6128,2.6117,2.6114,2.6097,2.609,2.609,2.6076,2.6063,2.6041,2.6038,2.6035,2.6038,2.6016,2.6017,2.6017,2.604,2.6043,2.6045,0,0,0,0,0,0,2.618,2.6156,2.6148,2.6146,2.6134,2.6112,2.6113,2.6101,2.609,2.6088,2.6067,2.6063,2.6057,2.6047,2.6044,2.6037,2.6026,2.6027,2.6045,2.6047,2.605,2.6052,2.6025,0,0,0,0,0,2.6185,2.618,2.6159,2.6159,2.6153,2.6134,2.6129,2.6117,2.6103,2.6098,2.6083,2.6069,2.6059,2.6052,2.6042,2.6039,2.6033,2.6039,2.6042,2.6044,2.6044,2.604,2.6043,2.602,2.602,2.602,0,0,2.6196,2.6182,2.618,2.6163,2.6152,2.6146,2.613,2.6124,2.6118,2.6096,2.6089,2.6077,2.606,2.6055,2.6052,2.6046,2.6049,2.6045,2.6046,2.6045,2.6041,2.6044,2.6046,2.6021,2.6021,2.6021,0,0,2.6212,2.6201,2.62,2.6189,2.6173,2.6161,2.616,2.6141,2.6133,2.6125,2.6108,2.61,2.6084,2.6072,2.6064,2.6075,2.6062,2.6072,2.6084,2.6081,2.6083,2.6084,2.6087,2.6089,2.6072,2.6072,2.6072,0,2.6226,2.6217,2.62,2.6195,2.6188,2.6168,2.6166,2.6156,2.6137,2.6132,2.6126,2.6104,2.6091,2.6083,2.6086,2.608,2.6078,2.6074,2.6084,2.6085,2.6086,2.6089,2.609,2.6074,2.6073,2.6073,2.6073,0,2.6235,2.6229,2.6229,2.6213,2.6205,2.6202,2.6183,2.6178,2.6166,2.6154,2.6145,2.6129,2.6115,2.6112,2.6101,2.6101,2.6098,2.6088,2.6077,2.609,2.6092,2.6093,2.6075,2.6075,2.6075,2.6074,0,0,2.6266,2.624,2.624,2.6232,2.6213,2.6207,2.6202,2.6189,2.6184,2.6171,2.6166,2.6152,2.6142,2.6133,2.612,2.6118,2.6126,2.6108,2.6107,2.6111,2.6125,2.6132,2.6134,2.6118,2.6118,2.6118,2.6126,0,2.6278,2.6269,2.6253,2.6249,2.6242,2.6223,2.6219,2.6206,2.6194,2.6185,2.6171,2.6161,2.615,2.6144,2.6141,2.6126,2.6128,2.6125,2.6111,2.6111,2.6116,2.6135,2.6143,2.6151,2.6127,2.6127,2.6127,0,2.6291,2.6281,2.6276,2.6257,2.6253,2.625,2.6236,2.6228,2.6213,2.6204,2.6194,2.618,2.6172,2.6162,2.615,2.6148,2.6141,2.6132,2.6132,2.613,2.612,2.6133,2.6154,2.6155,2.6128,2.6128,2.6128,0,2.6313,2.6298,2.6293,2.6286,2.6264,2.6262,2.6252,2.6236,2.6229,2.6217,2.6211,2.6198,2.619,2.6179,2.6161,2.6156,2.6151,2.614,2.6142,2.6143,2.6142,2.6142,2.6162,2.6138,2.6138,2.6138,2.6138,0,2.6329,2.6326,2.6302,2.6299,2.6295,2.6277,2.6273,2.6262,2.6248,2.6241,2.6223,2.6217,2.6194,2.6185,2.617,2.6162,2.6159,2.6151,2.6147,2.6152,2.6153,2.6147,2.6146,2.6139,2.6139,2.6139,2.6139,0,2.6353,2.6337,2.633,2.6309,2.6304,2.6302,2.6284,2.628,2.6266,2.6258,2.6255,2.6234,2.6222,2.6203,2.6185,2.6175,2.6169,2.6163,2.6175,2.6172,2.6176,2.6176,2.6192,2.6193,2.617,2.617,2.617,0,2.6363,2.6361,2.6341,2.6336,2.6327,2.6319,2.6311,2.6293,2.6285,2.6267,2.6265,2.6251,2.624,2.6221,2.6203,2.6189,2.6182,2.6189,2.618,2.6185,2.6182,2.6182,2.6181,2.6191,2.6191,2.6192,2.6192,0,2.6384,2.6376,2.6367,2.6355,2.6347,2.6336,2.6324,2.6321,2.6299,2.6292,2.628,2.6271,2.6253,2.6239,2.6223,2.6211,2.6197,2.6195,2.6195,2.62,2.6207,2.6202,2.618,2.6195,2.6194,2.6194,2.6194,2.6194,2.6401,2.6398,2.6383,2.6373,2.6363,2.6352,2.6347,2.6333,2.6323,2.6308,2.6297,2.6285,2.6269,2.6245,2.6234,2.6224,2.6218,2.6218,2.6218,2.6218,2.6219,2.6209,2.6221,2.6221,2.622,2.622,2.622,0,2.642,2.641,2.6401,2.6385,2.6377,2.6366,2.6353,2.6346,2.6337,2.6323,2.6312,2.6298,2.6284,2.6266,2.6251,2.6246,2.6239,2.6242,2.6242,2.624,2.6226,2.6227,2.6248,2.6248,2.6248,2.6248,2.6248,2.6248,2.6429,2.6423,2.6413,2.6402,2.6391,2.638,2.6373,2.6363,2.6352,2.6337,2.6326,2.6315,2.6298,2.6282,2.6269,2.6263,2.6258,2.6263,2.6256,2.6243,2.6241,2.6238,2.624,2.6263,2.6263,2.627,2.627,2.6271]}]]